Time,TemperatureF,DewpointF,PressureIn,WindDirection,WindDirectionDegrees,WindSpeedMPH,WindSpeedGustMPH,Humidity,HourlyPrecipIn,Conditions,Clouds,dailyrainin,SolarRadiationWatts/m^2,SoftwareType,DateUTC
2013-01-31 00:03:00,36.2,32.1,30.14,WNW,282,0.0,7.0,85,0.00,,,0.00,0,Wunderground v.1.15,2013-01-31 06:03:00,
2013-01-31 00:09:00,36.1,32.0,30.15,WNW,282,0.0,7.0,85,0.00,,,0.00,0,Wunderground v.1.15,2013-01-31 06:09:00,
2013-01-31 00:14:00,35.9,32.1,30.15,WNW,282,0.0,7.0,86,0.00,,,0.00,0,Wunderground v.1.15,2013-01-31 06:14:00,
2013-01-31 00:20:00,35.9,31.8,30.15,WNW,282,0.0,7.0,85,0.00,,,0.00,0,Wunderground v.1.15,2013-01-31 06:20:00,
2013-01-31 00:25:00,35.8,31.7,30.15,WNW,282,0.0,7.0,85,0.00,,,0.00,0,Wunderground v.1.15,2013-01-31 06:25:00,
2013-01-31 00:30:00,35.7,31.6,30.15,WNW,282,0.0,7.0,85,0.00,,,0.00,0,Wunderground v.1.15,2013-01-31 06:30:00,
2013-01-31 00:36:00,35.6,31.5,30.15,WNW,282,0.0,7.0,85,0.00,,,0.00,0,Wunderground v.1.15,2013-01-31 06:36:00,
2013-01-31 00:41:00,35.5,31.4,30.15,WNW,282,0.0,7.0,85,0.00,,,0.00,0,Wunderground v.1.15,2013-01-31 06:41:00,
2013-01-31 00:47:00,35.4,31.6,30.15,WNW,282,0.0,7.0,86,0.00,,,0.00,0,Wunderground v.1.15,2013-01-31 06:47:00,
2013-01-31 00:52:00,35.3,31.2,30.14,WNW,282,0.0,7.0,85,0.00,,,0.00,0,Wunderground v.1.15,2013-01-31 06:52:00,
2013-01-31 00:57:00,35.3,31.2,30.14,WNW,282,0.0,7.0,85,0.00,,,0.00,0,Wunderground v.1.15,2013-01-31 06:57:00,
2013-01-31 01:02:00,35.3,30.9,30.14,WNW,282,0.0,0.0,84,0.00,,,0.00,0,Wunderground v.1.15,2013-01-31 07:02:00,
2013-01-31 01:07:00,35.3,31.2,30.15,WNW,282,0.0,0.0,85,0.00,,,0.00,0,Wunderground v.1.15,2013-01-31 07:07:00,
2013-01-31 01:13:00,35.3,31.2,30.16,WNW,282,0.0,0.0,85,0.00,,,0.00,0,Wunderground v.1.15,2013-01-31 07:13:00,
2013-01-31 01:18:00,35.2,31.1,30.17,WNW,282,0.0,0.0,85,0.00,,,0.00,0,Wunderground v.1.15,2013-01-31 07:18:00,
2013-01-31 01:23:00,35.1,31.3,30.17,WNW,282,0.0,0.0,86,0.00,,,0.00,0,Wunderground v.1.15,2013-01-31 07:23:00,
2013-01-31 01:29:00,35.1,31.3,30.17,WNW,282,0.0,0.0,86,0.00,,,0.00,0,Wunderground v.1.15,2013-01-31 07:29:00,
2013-01-31 01:34:00,35.1,31.3,30.17,West,278,0.0,0.0,86,0.00,,,0.00,0,Wunderground v.1.15,2013-01-31 07:34:00,
2013-01-31 01:39:00,35.1,31.3,30.17,West,277,0.0,0.0,86,0.00,,,0.00,0,Wunderground v.1.15,2013-01-31 07:39:00,
2013-01-31 01:44:00,35.0,31.2,30.17,West,277,0.0,0.0,86,0.00,,,0.00,0,Wunderground v.1.15,2013-01-31 07:44:00,
2013-01-31 01:50:00,35.0,31.5,30.17,West,277,0.0,0.0,87,0.00,,,0.00,0,Wunderground v.1.15,2013-01-31 07:50:00,
2013-01-31 01:55:00,34.8,31.3,30.17,West,277,0.0,0.0,87,0.00,,,0.00,0,Wunderground v.1.15,2013-01-31 07:55:00,
2013-01-31 02:01:00,34.7,31.5,30.17,West,277,0.0,0.0,88,0.00,,,0.00,0,Wunderground v.1.15,2013-01-31 08:01:00,
2013-01-31 02:06:00,34.7,31.5,30.18,West,277,0.0,0.0,88,0.00,,,0.00,0,Wunderground v.1.15,2013-01-31 08:06:00,
2013-01-31 02:12:00,34.7,31.5,30.17,West,277,0.0,0.0,88,0.00,,,0.00,0,Wunderground v.1.15,2013-01-31 08:12:00,
2013-01-31 02:17:00,34.6,31.4,30.17,West,277,0.0,0.0,88,0.00,,,0.00,0,Wunderground v.1.15,2013-01-31 08:17:00,
2013-01-31 02:22:00,34.5,31.3,30.17,West,277,0.0,0.0,88,0.00,,,0.00,0,Wunderground v.1.15,2013-01-31 08:22:00,
2013-01-31 02:28:00,34.4,31.2,30.17,West,277,0.0,0.0,88,0.00,,,0.00,0,Wunderground v.1.15,2013-01-31 08:28:00,
2013-01-31 02:33:00,34.4,31.2,30.17,West,277,0.0,0.0,88,0.00,,,0.00,0,Wunderground v.1.15,2013-01-31 08:33:00,
2013-01-31 02:38:00,34.4,31.2,30.17,West,277,0.0,0.0,88,0.00,,,0.00,0,Wunderground v.1.15,2013-01-31 08:38:00,
2013-01-31 02:43:00,34.4,31.2,30.18,West,277,0.0,0.0,88,0.00,,,0.00,0,Wunderground v.1.15,2013-01-31 08:43:00,
2013-01-31 02:48:00,34.4,31.2,30.18,West,277,0.0,0.0,88,0.00,,,0.00,0,Wunderground v.1.15,2013-01-31 08:48:00,
2013-01-31 02:53:00,34.4,31.2,30.19,West,277,0.0,0.0,88,0.00,,,0.00,0,Wunderground v.1.15,2013-01-31 08:53:00,
2013-01-31 02:59:00,34.4,31.2,30.19,West,277,0.0,0.0,88,0.00,,,0.00,0,Wunderground v.1.15,2013-01-31 08:59:00,
2013-01-31 03:04:00,34.4,31.5,30.19,West,277,0.0,0.0,89,0.00,,,0.00,0,Wunderground v.1.15,2013-01-31 09:04:00,
2013-01-31 03:09:00,34.4,31.2,30.17,West,277,0.0,0.0,88,0.00,,,0.00,0,Wunderground v.1.15,2013-01-31 09:09:00,
2013-01-31 03:15:00,34.4,31.2,30.16,West,277,0.0,1.0,88,0.00,,,0.00,0,Wunderground v.1.15,2013-01-31 09:15:00,
2013-01-31 03:20:00,34.4,30.9,30.16,West,277,0.0,0.0,87,0.00,,,0.00,0,Wunderground v.1.15,2013-01-31 09:20:00,
2013-01-31 03:25:00,34.4,30.9,30.16,West,277,0.0,0.0,87,0.00,,,0.00,0,Wunderground v.1.15,2013-01-31 09:25:00,
2013-01-31 03:31:00,34.4,30.9,30.16,West,277,0.0,0.0,87,0.00,,,0.00,0,Wunderground v.1.15,2013-01-31 09:31:00,
2013-01-31 03:36:00,34.4,30.9,30.16,West,277,0.0,1.0,87,0.00,,,0.00,0,Wunderground v.1.15,2013-01-31 09:36:00,
2013-01-31 03:41:00,34.4,30.9,30.16,West,278,0.0,0.0,87,0.00,,,0.00,0,Wunderground v.1.15,2013-01-31 09:41:00,
2013-01-31 03:47:00,34.4,30.9,30.16,West,278,0.0,0.0,87,0.00,,,0.00,0,Wunderground v.1.15,2013-01-31 09:47:00,
2013-01-31 03:52:00,34.4,30.9,30.16,West,279,0.0,0.0,87,0.00,,,0.00,0,Wunderground v.1.15,2013-01-31 09:52:00,
2013-01-31 03:57:00,34.4,30.9,30.15,West,279,0.0,0.0,87,0.00,,,0.00,0,Wunderground v.1.15,2013-01-31 09:57:00,
2013-01-31 04:02:00,34.2,30.7,30.16,West,279,0.0,0.0,87,0.00,,,0.00,0,Wunderground v.1.15,2013-01-31 10:02:00,
2013-01-31 04:07:00,34.0,30.8,30.15,West,278,0.0,0.0,88,0.00,,,0.00,0,Wunderground v.1.15,2013-01-31 10:07:00,
2013-01-31 04:13:00,33.7,30.5,30.15,West,278,0.0,0.0,88,0.00,,,0.00,0,Wunderground v.1.15,2013-01-31 10:13:00,
2013-01-31 04:19:00,33.5,30.6,30.15,West,279,0.0,0.0,89,0.00,,,0.00,0,Wunderground v.1.15,2013-01-31 10:19:00,
2013-01-31 04:25:00,33.2,30.3,30.16,West,278,0.0,0.0,89,0.00,,,0.00,0,Wunderground v.1.15,2013-01-31 10:25:00,
2013-01-31 04:30:00,32.9,30.3,30.15,West,279,0.0,0.0,90,0.00,,,0.00,0,Wunderground v.1.15,2013-01-31 10:30:00,
2013-01-31 04:35:00,32.8,30.2,30.16,West,279,0.0,0.0,90,0.00,,,0.00,0,Wunderground v.1.15,2013-01-31 10:35:00,
2013-01-31 04:40:00,32.7,30.4,30.15,West,279,0.0,0.0,91,0.00,,,0.00,0,Wunderground v.1.15,2013-01-31 10:40:00,
2013-01-31 04:45:00,32.5,30.2,30.16,West,278,0.0,0.0,91,0.00,,,0.00,0,Wunderground v.1.15,2013-01-31 10:45:00,
2013-01-31 04:51:00,32.5,30.4,30.16,West,278,0.0,0.0,92,0.00,,,0.00,0,Wunderground v.1.15,2013-01-31 10:51:00,
2013-01-31 04:56:00,32.3,30.2,30.16,West,279,0.0,0.0,92,0.00,,,0.00,0,Wunderground v.1.15,2013-01-31 10:56:00,
2013-01-31 05:01:00,32.3,30.2,30.16,West,279,0.0,0.0,92,0.00,,,0.00,0,Wunderground v.1.15,2013-01-31 11:01:00,
2013-01-31 05:06:00,32.3,30.5,30.17,West,279,0.0,0.0,93,0.00,,,0.00,0,Wunderground v.1.15,2013-01-31 11:06:00,
2013-01-31 05:11:00,32.3,30.5,30.16,West,279,0.0,0.0,93,0.00,,,0.00,0,Wunderground v.1.15,2013-01-31 11:11:00,
2013-01-31 05:17:00,32.1,30.3,30.16,West,278,0.0,0.0,93,0.00,,,0.00,0,Wunderground v.1.15,2013-01-31 11:17:00,
2013-01-31 05:22:00,32.0,30.2,30.17,West,278,0.0,0.0,93,0.00,,,0.00,0,Wunderground v.1.15,2013-01-31 11:22:00,
2013-01-31 05:27:00,32.0,30.2,30.17,West,279,0.0,0.0,93,0.00,,,0.00,0,Wunderground v.1.15,2013-01-31 11:27:00,
2013-01-31 05:32:00,31.9,30.1,30.17,West,279,0.0,0.0,93,0.00,,,0.00,0,Wunderground v.1.15,2013-01-31 11:32:00,
2013-01-31 05:38:00,31.8,30.0,30.17,West,278,0.0,0.0,93,0.00,,,0.00,0,Wunderground v.1.15,2013-01-31 11:38:00,
2013-01-31 05:43:00,31.7,29.9,30.17,West,279,0.0,0.0,93,0.00,,,0.00,0,Wunderground v.1.15,2013-01-31 11:43:00,
2013-01-31 05:48:00,31.7,29.9,30.18,West,279,0.0,0.0,93,0.00,,,0.00,0,Wunderground v.1.15,2013-01-31 11:48:00,
2013-01-31 05:54:00,31.7,29.9,30.18,West,278,0.0,0.0,93,0.00,,,0.00,0,Wunderground v.1.15,2013-01-31 11:54:00,
2013-01-31 06:00:00,31.6,29.8,30.19,West,279,0.0,0.0,93,0.00,,,0.00,0,Wunderground v.1.15,2013-01-31 12:00:00,
2013-01-31 06:05:00,31.6,29.8,30.19,West,278,0.0,0.0,93,0.00,,,0.00,0,Wunderground v.1.15,2013-01-31 12:05:00,
2013-01-31 06:10:00,31.5,29.7,30.19,West,278,0.0,0.0,93,0.00,,,0.00,0,Wunderground v.1.15,2013-01-31 12:10:00,
2013-01-31 06:15:00,31.4,29.9,30.19,West,278,0.0,0.0,94,0.00,,,0.00,0,Wunderground v.1.15,2013-01-31 12:15:00,
2013-01-31 06:20:00,31.5,30.0,30.19,West,278,0.0,0.0,94,0.00,,,0.00,0,Wunderground v.1.15,2013-01-31 12:20:00,
2013-01-31 06:25:00,31.5,30.0,30.19,West,279,0.0,0.0,94,0.00,,,0.00,0,Wunderground v.1.15,2013-01-31 12:25:00,
2013-01-31 06:31:00,31.4,29.9,30.20,West,278,0.0,0.0,94,0.00,,,0.00,0,Wunderground v.1.15,2013-01-31 12:31:00,
2013-01-31 06:36:00,31.5,30.0,30.20,West,278,0.0,0.0,94,0.00,,,0.00,0,Wunderground v.1.15,2013-01-31 12:36:00,
2013-01-31 06:41:00,31.5,30.0,30.20,West,278,0.0,0.0,94,0.00,,,0.00,0,Wunderground v.1.15,2013-01-31 12:41:00,
2013-01-31 06:46:00,31.5,30.0,30.20,West,279,0.0,0.0,94,0.00,,,0.00,0,Wunderground v.1.15,2013-01-31 12:46:00,
2013-01-31 06:52:00,31.5,30.0,30.20,West,278,0.0,0.0,94,0.00,,,0.00,0,Wunderground v.1.15,2013-01-31 12:52:00,
2013-01-31 06:57:00,31.7,30.2,30.20,West,278,0.0,0.0,94,0.00,,,0.00,5,Wunderground v.1.15,2013-01-31 12:57:00,
2013-01-31 07:03:00,31.7,30.2,30.20,WNW,296,0.0,0.0,94,0.00,,,0.00,7,Wunderground v.1.15,2013-01-31 13:03:00,
2013-01-31 07:08:00,31.7,30.2,30.20,WNW,296,0.0,0.0,94,0.00,,,0.00,11,Wunderground v.1.15,2013-01-31 13:08:00,
2013-01-31 07:14:00,31.9,30.4,30.21,WNW,296,0.0,0.0,94,0.00,,,0.00,12,Wunderground v.1.15,2013-01-31 13:14:00,
2013-01-31 07:19:00,32.1,30.6,30.21,WNW,294,0.0,0.0,94,0.00,,,0.00,16,Wunderground v.1.15,2013-01-31 13:19:00,
2013-01-31 07:25:00,32.2,30.7,30.22,WNW,294,0.0,0.0,94,0.00,,,0.00,16,Wunderground v.1.15,2013-01-31 13:25:00,
2013-01-31 07:30:00,32.5,31.0,30.22,WNW,294,0.0,0.0,94,0.00,,,0.00,19,Wunderground v.1.15,2013-01-31 13:30:00,
2013-01-31 07:35:00,32.6,31.1,30.22,WNW,294,0.0,0.0,94,0.00,,,0.00,19,Wunderground v.1.15,2013-01-31 13:35:00,
2013-01-31 07:41:00,32.8,31.0,30.22,WNW,294,0.0,0.0,93,0.00,,,0.00,19,Wunderground v.1.15,2013-01-31 13:41:00,
2013-01-31 07:46:00,33.2,31.4,30.23,WNW,294,0.0,0.0,93,0.00,,,0.00,21,Wunderground v.1.15,2013-01-31 13:46:00,
2013-01-31 07:52:00,33.6,31.8,30.23,WNW,289,0.0,0.0,93,0.00,,,0.00,33,Wunderground v.1.15,2013-01-31 13:52:00,
2013-01-31 07:57:00,34.3,31.9,30.23,West,268,0.0,0.0,91,0.00,,,0.00,26,Wunderground v.1.15,2013-01-31 13:57:00,
2013-01-31 08:02:00,34.6,32.0,30.23,WSW,258,0.0,0.0,90,0.00,,,0.00,148,Wunderground v.1.15,2013-01-31 14:02:00,
2013-01-31 08:07:00,35.3,32.4,30.24,SW,235,0.0,0.0,89,0.00,,,0.00,160,Wunderground v.1.15,2013-01-31 14:07:00,
2013-01-31 08:13:00,35.9,32.7,30.24,WSW,248,0.0,0.0,88,0.00,,,0.00,169,Wunderground v.1.15,2013-01-31 14:13:00,
2013-01-31 08:18:00,36.6,32.8,30.24,SW,223,0.0,2.0,86,0.00,,,0.00,181,Wunderground v.1.15,2013-01-31 14:18:00,
2013-01-31 08:23:00,37.1,33.0,30.24,SW,236,0.0,0.0,85,0.00,,,0.00,190,Wunderground v.1.15,2013-01-31 14:23:00,
2013-01-31 08:29:00,37.7,33.3,30.24,WSW,241,1.0,5.0,84,0.00,,,0.00,200,Wunderground v.1.15,2013-01-31 14:29:00,
2013-01-31 08:34:00,38.2,33.2,30.24,SW,230,2.0,4.0,82,0.00,,,0.00,213,Wunderground v.1.15,2013-01-31 14:34:00,
2013-01-31 08:39:00,38.7,33.4,30.24,SW,235,2.0,3.0,81,0.00,,,0.00,227,Wunderground v.1.15,2013-01-31 14:39:00,
2013-01-31 08:45:00,39.3,33.6,30.25,SW,227,2.0,6.0,80,0.00,,,0.00,250,Wunderground v.1.15,2013-01-31 14:45:00,
2013-01-31 08:50:00,39.9,34.2,30.25,SW,236,1.0,3.0,80,0.00,,,0.00,276,Wunderground v.1.15,2013-01-31 14:50:00,
2013-01-31 08:55:00,40.5,34.5,30.25,SW,230,0.0,3.0,79,0.00,,,0.00,302,Wunderground v.1.15,2013-01-31 14:55:00,
2013-01-31 09:01:00,41.1,35.1,30.25,WSW,238,0.0,0.0,79,0.00,,,0.00,323,Wunderground v.1.15,2013-01-31 15:01:00,
2013-01-31 09:06:00,42.0,35.3,30.25,WSW,244,0.0,0.0,77,0.00,,,0.00,345,Wunderground v.1.15,2013-01-31 15:06:00,
2013-01-31 09:12:00,42.6,34.5,30.26,WSW,256,1.0,4.0,73,0.00,,,0.00,362,Wunderground v.1.15,2013-01-31 15:12:00,
2013-01-31 09:17:00,43.3,35.2,30.26,WSW,250,1.0,4.0,73,0.00,,,0.00,376,Wunderground v.1.15,2013-01-31 15:17:00,
2013-01-31 09:22:00,43.8,35.0,30.26,West,271,1.0,6.0,71,0.00,,,0.00,394,Wunderground v.1.15,2013-01-31 15:22:00,
2013-01-31 09:28:00,44.5,35.3,30.26,WSW,237,1.0,6.0,70,0.00,,,0.00,408,Wunderground v.1.15,2013-01-31 15:28:00,
2013-01-31 09:33:00,45.4,35.5,30.27,WSW,246,0.0,1.0,68,0.00,,,0.00,425,Wunderground v.1.15,2013-01-31 15:33:00,
2013-01-31 09:39:00,45.9,34.8,30.27,SW,232,0.0,5.0,65,0.00,,,0.00,439,Wunderground v.1.15,2013-01-31 15:39:00,
2013-01-31 09:44:00,46.4,34.1,30.27,SW,235,2.0,5.0,62,0.00,,,0.00,455,Wunderground v.1.15,2013-01-31 15:44:00,
2013-01-31 09:49:00,46.8,34.5,30.27,SW,229,2.0,2.0,62,0.00,,,0.00,466,Wunderground v.1.15,2013-01-31 15:49:00,
2013-01-31 09:55:00,47.2,34.0,30.27,WNW,286,1.0,4.0,60,0.00,,,0.00,482,Wunderground v.1.15,2013-01-31 15:55:00,
2013-01-31 10:00:00,47.6,32.2,30.27,West,271,2.0,7.0,55,0.00,,,0.00,494,Wunderground v.1.15,2013-01-31 16:00:00,
2013-01-31 10:05:00,47.8,31.5,30.27,WSW,258,2.0,7.0,53,0.00,,,0.00,506,Wunderground v.1.15,2013-01-31 16:05:00,
2013-01-31 10:10:00,48.2,32.3,30.27,SW,223,1.0,4.0,54,0.00,,,0.00,519,Wunderground v.1.15,2013-01-31 16:10:00,
2013-01-31 10:16:00,48.5,31.7,30.27,WNW,294,2.0,7.0,52,0.00,,,0.00,531,Wunderground v.1.15,2013-01-31 16:16:00,
2013-01-31 10:21:00,48.7,30.9,30.27,NW,306,3.0,7.0,50,0.00,,,0.00,540,Wunderground v.1.15,2013-01-31 16:21:00,
2013-01-31 10:27:00,49.3,31.9,30.27,NW,312,1.0,7.0,51,0.00,,,0.00,554,Wunderground v.1.15,2013-01-31 16:27:00,
2013-01-31 10:32:00,49.7,30.8,30.27,WSW,244,1.0,7.0,48,0.00,,,0.00,561,Wunderground v.1.15,2013-01-31 16:32:00,
2013-01-31 10:37:00,50.0,32.1,30.27,NW,320,1.0,7.0,50,0.00,,,0.00,570,Wunderground v.1.15,2013-01-31 16:37:00,
2013-01-31 10:43:00,50.2,32.3,30.27,WSW,237,0.0,1.0,50,0.00,,,0.00,578,Wunderground v.1.15,2013-01-31 16:43:00,
2013-01-31 10:48:00,50.0,31.1,30.27,SW,236,2.0,9.0,48,0.00,,,0.00,587,Wunderground v.1.15,2013-01-31 16:48:00,
2013-01-31 10:53:00,50.5,31.0,30.27,NW,310,1.0,2.0,47,0.00,,,0.00,596,Wunderground v.1.15,2013-01-31 16:53:00,
2013-01-31 10:58:00,50.9,29.7,30.27,West,281,1.0,3.0,44,0.00,,,0.00,605,Wunderground v.1.15,2013-01-31 16:58:00,
2013-01-31 11:03:00,50.9,29.2,30.27,West,271,2.0,5.0,43,0.00,,,0.00,613,Wunderground v.1.15,2013-01-31 17:03:00,
2013-01-31 11:08:00,51.3,29.0,30.27,NNW,337,1.0,5.0,42,0.00,,,0.00,621,Wunderground v.1.15,2013-01-31 17:08:00,
2013-01-31 11:14:00,51.3,27.2,30.27,West,277,3.0,9.0,39,0.00,,,0.00,624,Wunderground v.1.15,2013-01-31 17:14:00,
2013-01-31 11:19:00,51.4,27.9,30.27,NNW,328,4.0,9.0,40,0.00,,,0.00,629,Wunderground v.1.15,2013-01-31 17:19:00,
2013-01-31 11:24:00,51.8,29.4,30.27,WSW,240,1.0,3.0,42,0.00,,,0.00,635,Wunderground v.1.15,2013-01-31 17:24:00,
2013-01-31 11:29:00,52.3,29.3,30.26,NW,315,0.0,0.0,41,0.00,,,0.00,640,Wunderground v.1.15,2013-01-31 17:29:00,
2013-01-31 11:34:00,52.3,30.4,30.27,West,260,0.0,1.0,43,0.00,,,0.00,643,Wunderground v.1.15,2013-01-31 17:34:00,
2013-01-31 11:39:00,52.4,29.4,30.26,NW,305,1.0,1.0,41,0.00,,,0.00,649,Wunderground v.1.15,2013-01-31 17:39:00,
2013-01-31 11:45:00,52.7,29.6,30.26,NW,312,0.0,1.0,41,0.00,,,0.00,656,Wunderground v.1.15,2013-01-31 17:45:00,
2013-01-31 11:50:00,52.8,28.5,30.26,WSW,244,1.0,1.0,39,0.00,,,0.00,657,Wunderground v.1.15,2013-01-31 17:50:00,
2013-01-31 11:56:00,52.9,27.3,30.26,NW,316,1.0,7.0,37,0.00,,,0.00,661,Wunderground v.1.15,2013-01-31 17:56:00,
2013-01-31 12:01:00,52.9,26.6,30.26,WNW,295,1.0,1.0,36,0.00,,,0.00,663,Wunderground v.1.15,2013-01-31 18:01:00,
2013-01-31 12:07:00,53.1,27.5,30.26,West,259,1.0,8.0,37,0.00,,,0.00,666,Wunderground v.1.15,2013-01-31 18:07:00,
2013-01-31 12:12:00,53.3,28.3,30.25,WSW,253,1.0,1.0,38,0.00,,,0.00,666,Wunderground v.1.15,2013-01-31 18:12:00,
2013-01-31 12:17:00,53.4,28.4,30.24,SSW,204,0.0,4.0,38,0.00,,,0.00,668,Wunderground v.1.15,2013-01-31 18:17:00,
2013-01-31 12:22:00,53.9,29.5,30.24,NNW,333,1.0,2.0,39,0.00,,,0.00,568,Wunderground v.1.15,2013-01-31 18:22:00,
2013-01-31 12:27:00,54.1,28.4,30.25,NW,304,1.0,4.0,37,0.00,,,0.00,668,Wunderground v.1.15,2013-01-31 18:27:00,
2013-01-31 12:33:00,54.0,28.9,30.24,West,278,1.0,3.0,38,0.00,,,0.00,668,Wunderground v.1.15,2013-01-31 18:33:00,
2013-01-31 12:38:00,54.1,29.0,30.24,West,281,2.0,8.0,38,0.00,,,0.00,668,Wunderground v.1.15,2013-01-31 18:38:00,
2013-01-31 12:44:00,54.7,28.2,30.23,NE,40,1.0,1.0,36,0.00,,,0.00,666,Wunderground v.1.15,2013-01-31 18:44:00,
2013-01-31 12:49:00,55.1,28.6,30.23,West,262,1.0,6.0,36,0.00,,,0.00,666,Wunderground v.1.15,2013-01-31 18:49:00,
2013-01-31 12:55:00,55.0,27.8,30.23,WNW,284,1.0,6.0,35,0.00,,,0.00,663,Wunderground v.1.15,2013-01-31 18:55:00,
2013-01-31 13:00:00,54.8,28.3,30.23,WNW,293,1.0,2.0,36,0.00,,,0.00,659,Wunderground v.1.15,2013-01-31 19:00:00,
2013-01-31 13:06:00,55.1,29.3,30.22,NNW,331,1.0,2.0,37,0.00,,,0.00,656,Wunderground v.1.15,2013-01-31 19:06:00,
2013-01-31 13:11:00,55.1,27.2,30.22,WNW,294,1.0,1.0,34,0.00,,,0.00,652,Wunderground v.1.15,2013-01-31 19:11:00,
2013-01-31 13:16:00,55.4,27.5,30.22,NNW,336,3.0,6.0,34,0.00,,,0.00,649,Wunderground v.1.15,2013-01-31 19:16:00,
2013-01-31 13:22:00,55.9,26.4,30.21,WSW,258,2.0,4.0,32,0.00,,,0.00,643,Wunderground v.1.15,2013-01-31 19:22:00,
2013-01-31 13:27:00,55.8,27.1,30.21,West,260,3.0,5.0,33,0.00,,,0.00,640,Wunderground v.1.15,2013-01-31 19:27:00,
2013-01-31 13:33:00,56.0,26.5,30.22,NW,325,2.0,3.0,32,0.00,,,0.00,633,Wunderground v.1.15,2013-01-31 19:33:00,
2013-01-31 13:38:00,55.9,25.7,30.22,WNW,301,2.0,5.0,31,0.00,,,0.00,626,Wunderground v.1.15,2013-01-31 19:38:00,
2013-01-31 13:43:00,55.9,27.2,30.21,WSW,251,2.0,4.0,33,0.00,,,0.00,619,Wunderground v.1.15,2013-01-31 19:43:00,
2013-01-31 13:49:00,56.0,27.3,30.21,NW,320,2.0,4.0,33,0.00,,,0.00,612,Wunderground v.1.15,2013-01-31 19:49:00,
2013-01-31 13:54:00,56.3,26.8,30.22,WSW,239,2.0,4.0,32,0.00,,,0.00,603,Wunderground v.1.15,2013-01-31 19:54:00,
2013-01-31 13:59:00,56.5,27.7,30.21,West,267,2.0,7.0,33,0.00,,,0.00,594,Wunderground v.1.15,2013-01-31 19:59:00,
2013-01-31 14:04:00,56.9,28.1,30.21,SW,233,2.0,6.0,33,0.00,,,0.00,585,Wunderground v.1.15,2013-01-31 20:04:00,
2013-01-31 14:09:00,57.2,27.6,30.22,WNW,291,1.0,5.0,32,0.00,,,0.00,577,Wunderground v.1.15,2013-01-31 20:09:00,
2013-01-31 14:15:00,56.9,25.7,30.22,West,260,4.0,10.0,30,0.00,,,0.00,566,Wunderground v.1.15,2013-01-31 20:15:00,
2013-01-31 14:21:00,56.7,26.4,30.22,WSW,243,5.0,5.0,31,0.00,,,0.00,554,Wunderground v.1.15,2013-01-31 20:21:00,
2013-01-31 14:26:00,56.7,27.1,30.21,WSW,257,2.0,5.0,32,0.00,,,0.00,541,Wunderground v.1.15,2013-01-31 20:26:00,
2013-01-31 14:31:00,56.9,27.3,30.22,NW,312,2.0,5.0,32,0.00,,,0.00,531,Wunderground v.1.15,2013-01-31 20:31:00,
2013-01-31 14:36:00,57.1,26.7,30.22,NNW,330,3.0,5.0,31,0.00,,,0.00,520,Wunderground v.1.15,2013-01-31 20:36:00,
2013-01-31 14:42:00,57.6,27.9,30.22,WSW,246,1.0,2.0,32,0.00,,,0.00,512,Wunderground v.1.15,2013-01-31 20:42:00,
2013-01-31 14:47:00,57.7,28.0,30.22,WSW,246,2.0,6.0,32,0.00,,,0.00,501,Wunderground v.1.15,2013-01-31 20:47:00,
2013-01-31 14:52:00,57.7,27.2,30.21,WNW,303,3.0,4.0,31,0.00,,,0.00,485,Wunderground v.1.15,2013-01-31 20:52:00,
2013-01-31 14:57:00,58.0,28.3,30.21,WNW,301,1.0,4.0,32,0.00,,,0.00,469,Wunderground v.1.15,2013-01-31 20:57:00,
2013-01-31 15:03:00,58.2,27.7,30.21,NW,304,0.0,2.0,31,0.00,,,0.00,455,Wunderground v.1.15,2013-01-31 21:03:00,
2013-01-31 15:08:00,58.6,28.8,30.21,WSW,239,1.0,2.0,32,0.00,,,0.00,441,Wunderground v.1.15,2013-01-31 21:08:00,
2013-01-31 15:13:00,58.5,28.7,30.20,WNW,302,1.0,4.0,32,0.00,,,0.00,424,Wunderground v.1.15,2013-01-31 21:13:00,
2013-01-31 15:18:00,58.2,28.5,30.21,NW,312,2.0,6.0,32,0.00,,,0.00,408,Wunderground v.1.15,2013-01-31 21:18:00,
2013-01-31 15:23:00,58.3,28.5,30.21,WSW,248,3.0,9.0,32,0.00,,,0.00,392,Wunderground v.1.15,2013-01-31 21:23:00,
2013-01-31 15:29:00,58.0,29.0,30.21,SSW,202,4.0,9.0,33,0.00,,,0.00,378,Wunderground v.1.15,2013-01-31 21:29:00,
2013-01-31 15:34:00,57.8,28.1,30.21,South,169,2.0,4.0,32,0.00,,,0.00,362,Wunderground v.1.15,2013-01-31 21:34:00,
2013-01-31 15:39:00,58.0,28.3,30.21,South,185,1.0,1.0,32,0.00,,,0.00,343,Wunderground v.1.15,2013-01-31 21:39:00,
2013-01-31 15:45:00,58.0,29.0,30.21,WNW,285,1.0,1.0,33,0.00,,,0.00,327,Wunderground v.1.15,2013-01-31 21:45:00,
2013-01-31 15:50:00,58.1,28.4,30.21,SW,220,2.0,2.0,32,0.00,,,0.00,313,Wunderground v.1.15,2013-01-31 21:50:00,
2013-01-31 15:55:00,58.1,27.6,30.21,SW,228,2.0,6.0,31,0.00,,,0.00,162,Wunderground v.1.15,2013-01-31 21:55:00,
2013-01-31 16:01:00,57.8,28.1,30.21,West,270,1.0,1.0,32,0.00,,,0.00,132,Wunderground v.1.15,2013-01-31 22:01:00,
2013-01-31 16:06:00,57.5,29.3,30.21,SW,232,1.0,1.0,34,0.00,,,0.00,114,Wunderground v.1.15,2013-01-31 22:06:00,
2013-01-31 16:11:00,57.5,28.6,30.21,SW,231,0.0,0.0,33,0.00,,,0.00,251,Wunderground v.1.15,2013-01-31 22:11:00,
2013-01-31 16:17:00,57.8,29.6,30.21,SW,223,1.0,1.0,34,0.00,,,0.00,220,Wunderground v.1.15,2013-01-31 22:17:00,
2013-01-31 16:23:00,58.1,28.4,30.21,WSW,240,1.0,8.0,32,0.00,,,0.00,193,Wunderground v.1.15,2013-01-31 22:23:00,
2013-01-31 16:28:00,58.3,28.5,30.21,WSW,238,1.0,8.0,32,0.00,,,0.00,165,Wunderground v.1.15,2013-01-31 22:28:00,
2013-01-31 16:34:00,58.2,28.5,30.21,SW,222,1.0,1.0,32,0.00,,,0.00,149,Wunderground v.1.15,2013-01-31 22:34:00,
2013-01-31 16:39:00,58.0,28.3,30.21,West,262,1.0,1.0,32,0.00,,,0.00,132,Wunderground v.1.15,2013-01-31 22:39:00,
2013-01-31 16:45:00,57.8,28.1,30.21,West,261,1.0,5.0,32,0.00,,,0.00,97,Wunderground v.1.15,2013-01-31 22:45:00,
2013-01-31 16:51:00,57.4,27.7,30.21,West,260,1.0,4.0,32,0.00,,,0.00,26,Wunderground v.1.15,2013-01-31 22:51:00,
2013-01-31 16:57:00,56.8,28.0,30.22,WSW,239,1.0,4.0,33,0.00,,,0.00,26,Wunderground v.1.15,2013-01-31 22:57:00,
2013-01-31 17:04:00,56.6,27.8,30.22,WSW,240,0.0,1.0,33,0.00,,,0.00,19,Wunderground v.1.15,2013-01-31 23:04:00,
2013-01-31 17:09:00,56.2,28.9,30.21,SW,227,0.0,0.0,35,0.00,,,0.00,18,Wunderground v.1.15,2013-01-31 23:09:00,
2013-01-31 17:15:00,55.8,29.9,30.21,SW,229,0.0,0.0,37,0.00,,,0.00,16,Wunderground v.1.15,2013-01-31 23:15:00,
2013-01-31 17:21:00,55.4,30.2,30.22,SW,229,0.0,0.0,38,0.00,,,0.00,12,Wunderground v.1.15,2013-01-31 23:21:00,
2013-01-31 17:26:00,55.0,30.5,30.22,SW,230,0.0,0.0,39,0.00,,,0.00,9,Wunderground v.1.15,2013-01-31 23:26:00,
2013-01-31 17:31:00,54.5,30.6,30.21,SW,230,0.0,0.0,40,0.00,,,0.00,7,Wunderground v.1.15,2013-01-31 23:31:00,
2013-01-31 17:37:00,54.0,30.8,30.22,SW,230,0.0,0.0,41,0.00,,,0.00,5,Wunderground v.1.15,2013-01-31 23:37:00,
2013-01-31 17:42:00,53.3,30.8,30.22,SW,230,0.0,0.0,42,0.00,,,0.00,0,Wunderground v.1.15,2013-01-31 23:42:00,
2013-01-31 17:48:00,52.9,31.0,30.22,SW,230,0.0,0.0,43,0.00,,,0.00,0,Wunderground v.1.15,2013-01-31 23:48:00,
2013-01-31 17:53:00,52.2,30.9,30.22,SW,230,0.0,0.0,44,0.00,,,0.00,0,Wunderground v.1.15,2013-01-31 23:53:00,
2013-01-31 17:59:00,51.7,32.1,30.23,SW,230,0.0,0.0,47,0.00,,,0.00,0,Wunderground v.1.15,2013-01-31 23:59:00,
2013-01-31 18:04:00,51.2,30.6,30.23,SW,230,0.0,0.0,45,0.00,,,0.00,0,Wunderground v.1.15,2013-02-01 00:04:00,
2013-01-31 18:09:00,50.8,30.7,30.23,SW,230,0.0,0.0,46,0.00,,,0.00,0,Wunderground v.1.15,2013-02-01 00:09:00,
2013-01-31 18:14:00,50.4,29.8,30.23,SW,230,0.0,0.0,45,0.00,,,0.00,0,Wunderground v.1.15,2013-02-01 00:14:00,
2013-01-31 18:20:00,50.3,30.3,30.22,SW,230,0.0,0.0,46,0.00,,,0.00,0,Wunderground v.1.15,2013-02-01 00:20:00,
2013-01-31 18:25:00,50.0,31.6,30.22,SW,230,0.0,0.0,49,0.00,,,0.00,0,Wunderground v.1.15,2013-02-01 00:25:00,
2013-01-31 18:30:00,49.6,31.7,30.22,SW,230,0.0,0.0,50,0.00,,,0.00,0,Wunderground v.1.15,2013-02-01 00:30:00,
2013-01-31 18:36:00,49.2,32.3,30.23,SW,230,0.0,0.0,52,0.00,,,0.00,0,Wunderground v.1.15,2013-02-01 00:36:00,
2013-01-31 18:41:00,48.8,31.0,30.23,SW,229,0.0,0.0,50,0.00,,,0.00,0,Wunderground v.1.15,2013-02-01 00:41:00,
2013-01-31 18:46:00,48.7,32.3,30.23,SW,230,0.0,0.0,53,0.00,,,0.00,0,Wunderground v.1.15,2013-02-01 00:46:00,
2013-01-31 18:52:00,48.7,31.4,30.23,SW,230,0.0,0.0,51,0.00,,,0.00,0,Wunderground v.1.15,2013-02-01 00:52:00,
2013-01-31 18:57:00,48.8,30.5,30.23,SW,229,0.0,0.0,49,0.00,,,0.00,0,Wunderground v.1.15,2013-02-01 00:57:00,
2013-01-31 19:02:00,48.9,31.1,30.23,SW,229,0.0,0.0,50,0.00,,,0.00,0,Wunderground v.1.15,2013-02-01 01:02:00,
2013-01-31 19:07:00,49.1,30.7,30.23,SW,228,0.0,0.0,49,0.00,,,0.00,0,Wunderground v.1.15,2013-02-01 01:07:00,
2013-01-31 19:12:00,49.2,30.8,30.23,SW,228,0.0,0.0,49,0.00,,,0.00,0,Wunderground v.1.15,2013-02-01 01:12:00,
2013-01-31 19:18:00,49.1,30.7,30.23,SW,229,0.0,0.0,49,0.00,,,0.00,0,Wunderground v.1.15,2013-02-01 01:18:00,
2013-01-31 19:23:00,49.1,30.2,30.23,SW,228,0.0,0.0,48,0.00,,,0.00,0,Wunderground v.1.15,2013-02-01 01:23:00,
2013-01-31 19:28:00,49.1,30.2,30.24,West,262,0.0,0.0,48,0.00,,,0.00,0,Wunderground v.1.15,2013-02-01 01:28:00,
2013-01-31 19:34:00,49.1,30.2,30.23,SSW,209,0.0,0.0,48,0.00,,,0.00,0,Wunderground v.1.15,2013-02-01 01:34:00,
2013-01-31 19:39:00,48.9,30.1,30.24,SSW,209,0.0,0.0,48,0.00,,,0.00,0,Wunderground v.1.15,2013-02-01 01:39:00,
2013-01-31 19:44:00,48.8,30.5,30.24,SSW,212,0.0,0.0,49,0.00,,,0.00,0,Wunderground v.1.15,2013-02-01 01:44:00,
2013-01-31 19:50:00,48.6,29.8,30.24,SSW,211,0.0,0.0,48,0.00,,,0.00,0,Wunderground v.1.15,2013-02-01 01:50:00,
2013-01-31 19:55:00,48.5,30.2,30.23,WSW,238,0.0,0.0,49,0.00,,,0.00,0,Wunderground v.1.15,2013-02-01 01:55:00,
2013-01-31 20:01:00,48.3,30.0,30.24,WSW,237,0.0,0.0,49,0.00,,,0.00,0,Wunderground v.1.15,2013-02-01 02:01:00,
2013-01-31 20:06:00,48.1,30.3,30.24,WSW,237,0.0,0.0,50,0.00,,,0.00,0,Wunderground v.1.15,2013-02-01 02:06:00,
2013-01-31 20:11:00,47.9,30.1,30.24,SW,214,0.0,0.0,50,0.00,,,0.00,0,Wunderground v.1.15,2013-02-01 02:11:00,
2013-01-31 20:16:00,47.7,30.9,30.24,WSW,251,0.0,0.0,52,0.00,,,0.00,0,Wunderground v.1.15,2013-02-01 02:16:00,
2013-01-31 20:22:00,47.5,30.7,30.24,WSW,251,0.0,0.0,52,0.00,,,0.00,0,Wunderground v.1.15,2013-02-01 02:22:00,
2013-01-31 20:27:00,47.2,30.9,30.24,WSW,249,0.0,0.0,53,0.00,,,0.00,0,Wunderground v.1.15,2013-02-01 02:27:00,
2013-01-31 20:32:00,47.2,31.4,30.25,WSW,237,0.0,0.0,54,0.00,,,0.00,0,Wunderground v.1.15,2013-02-01 02:32:00,
2013-01-31 20:38:00,47.1,30.8,30.25,WSW,238,0.0,0.0,53,0.00,,,0.00,0,Wunderground v.1.15,2013-02-01 02:38:00,
2013-01-31 20:43:00,47.0,31.2,30.26,WSW,237,0.0,0.0,54,0.00,,,0.00,0,Wunderground v.1.15,2013-02-01 02:43:00,
2013-01-31 20:48:00,46.8,31.0,30.26,SW,232,0.0,0.0,54,0.00,,,0.00,0,Wunderground v.1.15,2013-02-01 02:48:00,
2013-01-31 20:54:00,46.7,30.9,30.27,SW,222,0.0,0.0,54,0.00,,,0.00,0,Wunderground v.1.15,2013-02-01 02:54:00,
2013-01-31 20:59:00,46.7,30.5,30.27,SW,220,0.0,0.0,53,0.00,,,0.00,0,Wunderground v.1.15,2013-02-01 02:59:00,
2013-01-31 21:05:00,46.6,30.8,30.27,SW,221,0.0,0.0,54,0.00,,,0.00,0,Wunderground v.1.15,2013-02-01 03:05:00,
2013-01-31 21:11:00,46.4,30.6,30.27,SW,222,0.0,0.0,54,0.00,,,0.00,0,Wunderground v.1.15,2013-02-01 03:11:00,
2013-01-31 21:16:00,46.4,31.1,30.27,SW,224,0.0,0.0,55,0.00,,,0.00,0,Wunderground v.1.15,2013-02-01 03:16:00,
2013-01-31 21:22:00,46.3,30.5,30.28,SW,225,0.0,0.0,54,0.00,,,0.00,0,Wunderground v.1.15,2013-02-01 03:22:00,
2013-01-31 21:27:00,46.3,31.0,30.28,SW,231,0.0,0.0,55,0.00,,,0.00,0,Wunderground v.1.15,2013-02-01 03:27:00,
2013-01-31 21:32:00,46.2,30.9,30.29,SW,227,0.0,0.0,55,0.00,,,0.00,0,Wunderground v.1.15,2013-02-01 03:32:00,
2013-01-31 21:37:00,46.1,30.8,30.30,WSW,254,0.0,0.0,55,0.00,,,0.00,0,Wunderground v.1.15,2013-02-01 03:37:00,
2013-01-31 21:44:00,46.0,30.7,30.30,WSW,247,0.0,0.0,55,0.00,,,0.00,0,Wunderground v.1.15,2013-02-01 03:44:00,
2013-01-31 21:49:00,46.1,30.4,30.30,WSW,244,0.0,0.0,54,0.00,,,0.00,0,Wunderground v.1.15,2013-02-01 03:49:00,
2013-01-31 21:54:00,46.2,30.5,30.30,SW,221,0.0,1.0,54,0.00,,,0.00,0,Wunderground v.1.15,2013-02-01 03:54:00,
2013-01-31 21:59:00,46.3,30.5,30.30,West,281,1.0,1.0,54,0.00,,,0.00,0,Wunderground v.1.15,2013-02-01 03:59:00,
2013-01-31 22:04:00,46.3,30.5,30.30,WSW,243,1.0,3.0,54,0.00,,,0.00,0,Wunderground v.1.15,2013-02-01 04:04:00,
2013-01-31 22:10:00,46.3,30.5,30.30,WSW,257,0.0,2.0,54,0.00,,,0.00,0,Wunderground v.1.15,2013-02-01 04:10:00,
2013-01-31 22:15:00,46.2,30.5,30.30,WSW,243,0.0,2.0,54,0.00,,,0.00,0,Wunderground v.1.15,2013-02-01 04:15:00,
2013-01-31 22:20:00,46.2,30.5,30.30,WSW,242,0.0,0.0,54,0.00,,,0.00,0,Wunderground v.1.15,2013-02-01 04:20:00,
2013-01-31 22:26:00,46.1,30.8,30.30,SW,221,0.0,0.0,55,0.00,,,0.00,0,Wunderground v.1.15,2013-02-01 04:26:00,
2013-01-31 22:31:00,46.1,31.3,30.31,West,276,0.0,0.0,56,0.00,,,0.00,0,Wunderground v.1.15,2013-02-01 04:31:00,
2013-01-31 22:37:00,46.1,30.8,30.31,WSW,239,1.0,4.0,55,0.00,,,0.00,0,Wunderground v.1.15,2013-02-01 04:37:00,
2013-01-31 22:42:00,46.0,31.2,30.31,WSW,248,1.0,5.0,56,0.00,,,0.00,0,Wunderground v.1.15,2013-02-01 04:42:00,
2013-01-31 22:47:00,46.0,31.6,30.31,WSW,248,1.0,5.0,57,0.00,,,0.00,0,Wunderground v.1.15,2013-02-01 04:47:00,
2013-01-31 22:52:00,46.0,31.6,30.31,WSW,242,0.0,2.0,57,0.00,,,0.00,0,Wunderground v.1.15,2013-02-01 04:52:00,
2013-01-31 22:58:00,46.0,32.0,30.30,SW,215,0.0,2.0,58,0.00,,,0.00,0,Wunderground v.1.15,2013-02-01 04:58:00,
2013-01-31 23:00:00,45.9,31.5,30.30,SW,218,0.0,0.0,57,0.00,,,0.00,0,Wunderground v.1.15,2013-02-01 05:00:00,
2013-01-31 23:03:00,45.9,31.5,30.30,SW,229,0.0,0.0,57,0.00,,,0.00,0,Wunderground v.1.15,2013-02-01 05:03:00,
2013-01-31 23:04:00,45.9,31.9,30.30,SW,229,1.0,1.0,58,0.00,,,0.00,0,Wunderground v.1.15,2013-02-01 05:04:00,
2013-01-31 23:06:00,45.9,33.2,30.30,SW,221,1.0,1.0,61,0.00,,,0.00,0,Wunderground v.1.15,2013-02-01 05:06:00,
2013-01-31 23:12:00,45.9,31.9,30.30,West,262,0.0,3.0,58,0.00,,,0.00,0,Wunderground v.1.15,2013-02-01 05:12:00,
2013-01-31 23:17:00,45.8,31.9,30.30,SW,236,0.0,3.0,58,0.00,,,0.00,0,Wunderground v.1.15,2013-02-01 05:17:00,
2013-01-31 23:23:00,45.7,32.2,30.31,WSW,242,0.0,0.0,59,0.00,,,0.00,0,Wunderground v.1.15,2013-02-01 05:23:00,
2013-01-31 23:28:00,45.6,32.1,30.31,SW,227,0.0,1.0,59,0.00,,,0.00,0,Wunderground v.1.15,2013-02-01 05:28:00,
2013-01-31 23:33:00,45.6,32.5,30.31,SW,216,0.0,1.0,60,0.00,,,0.00,0,Wunderground v.1.15,2013-02-01 05:33:00,
2013-01-31 23:38:00,45.4,32.3,30.31,SW,217,0.0,1.0,60,0.00,,,0.00,0,Wunderground v.1.15,2013-02-01 05:38:00,
2013-01-31 23:43:00,45.3,32.6,30.31,SW,219,0.0,0.0,61,0.00,,,0.00,0,Wunderground v.1.15,2013-02-01 05:43:00,
2013-01-31 23:49:00,45.0,32.3,30.31,SW,219,0.0,0.0,61,0.00,,,0.00,0,Wunderground v.1.15,2013-02-01 05:49:00,
2013-01-31 23:55:00,44.9,32.7,30.31,SW,219,0.0,0.0,62,0.00,,,0.00,0,Wunderground v.1.15,2013-02-01 05:55:00,